Retour au catalogue

STARLINK-34941

ActifCommunicationsVLEO
NORAD 65210·PAYLOAD·🇺🇸 United States

Lancé Aug 14, 2025 depuis Cape Canaveral Space Force Station

Loading…

Prochains Passages (prochaines 24 heures)

TLE

FraisSource: CelesTrak SupGP

Époque: Sep 15, 2026, 03:32 UTC

1 65210C 25176N   26258.14770833  .00072803  00000+0  21501-2 0  2589
2 65210  53.1594 348.9196 0001212  93.4837 166.5834 15.34366988    10

Suivez STARLINK-34941 en temps réel avec AllMySat

Download on the App Store